Wind_Speed
16 15 15 15 14 14 14 13 12 11 10 10 9 9 9 9 9 10 10 10 10 10 10 10 10 9 8 8 8 8 9 9 8 8 9 10 10 9 9 9 10 9
16 15 14 13 13 13 13 13 12 11 9 8 7 7 8 9 9 10 10 10 11 11 11 10 10 9 9 8 8 8 9 9 9 9 9 9 9 9 9 9 10 10
17 16 15 14 14 14 13 12 11 10 9 7 7 7 8 9 9 10 11 11 12 12 12 12 11 10 10 9 9 9 9 9 9 9 9 8 8 8 9 8 9 10
18 17 17 16 16 15 15 13 12 11 10 9 8 8 9 9 9 10 11 12 13 13 13 13 12 12 12 11 10 10 9 9 10 10 9 9 8 9 9 9 9 9
20 19 19 18 17 17 15 14 13 12 11 11 10 9 10 10 10 10 12 13 14 15 15 14 14 14 14 13 12 11 10 10 10 10 10 10 9 9 9 9 9 9
22 21 20 20 19 17 16 16 15 14 13 12 11 11 11 10 10 11 13 14 15 16 16 16 16 16 14 13 12 12 11 11 11 11 10 10 10 8 8 8 8 9
23 22 21 21 19 18 18 17 16 16 15 14 13 12 12 11 11 11 13 14 15 17 17 18 18 16 15 13 12 11 11 11 11 11 10 10 10 9 8 7 8 8
25 25 23 22 20 19 19 18 18 17 17 15 14 14 13 13 13 12 13 14 15 17 18 19 18 16 15 13 12 11 10 10 9 9 9 9 9 8 7 7 7 7
27 26 25 22 20 19 20 20 19 19 18 17 16 16 15 15 14 14 15 15 16 17 18 18 17 16 15 14 12 12 10 10 9 8 8 8 7 7 6 6 6 6
29 27 26 23 22 21 21 21 21 20 19 18 18 17 16 16 16 15 16 17 17 18 18 18 17 16 15 14 13 12 11 10 9 8 7 7 6 5 5 5 5 5
30 28 26 24 24 24 24 23 22 21 20 19 18 17 17 17 16 16 17 18 19 19 19 19 18 17 15 14 13 12 11 10 9 8 7 6 6 5 4 4 4 4
32 30 28 26 26 26 26 25 24 22 21 20 19 18 17 17 17 18 18 19 21 21 20 20 18 17 16 15 14 13 12 11 10 9 8 7 6 5 5 4 4 5
32 31 30 29 29 28 28 27 26 24 23 22 21 19 18 17 17 18 20 21 22 22 22 21 20 18 17 16 15 14 13 12 11 10 9 8 7 7 6 5 5 6
32 32 32 32 32 31 31 29 27 26 25 24 23 21 19 18 18 20 21 22 22 23 23 23 22 20 18 17 16 16 15 14 13 12 11 10 9 8 8 7 7 7
33 33 34 34 34 33 32 31 29 28 27 26 25 23 22 21 20 21 22 22 23 23 24 24 23 21 20 19 18 17 16 15 15 14 13 11 10 10 9 9 9 9
35 35 35 35 35 35 34 33 32 31 29 28 27 25 24 23 22 21 21 22 23 24 24 24 24 23 22 21 20 19 18 17 16 15 14 13 12 11 11 11 11 11
37 36 36 36 36 36 36 35 34 33 31 30 29 27 26 25 23 22 22 22 23 24 24 25 25 25 25 24 23 22 21 20 18 18 16 15 14 13 13 13 13 13
38 37 37 37 37 36 36 36 35 34 33 32 30 29 28 27 25 24 23 23 24 24 24 25 26 27 28 28 27 26 25 23 22 21 19 17 16 15 14 14 15 15
37 37 37 36 37 37 37 37 36 35 34 33 32 31 30 29 27 26 26 25 25 24 24 25 26 28 29 29 30 29 29 27 26 25 23 20 19 17 16 16 16 16
35 35 36 36 37 37 38 37 37 36 36 35 35 34 32 31 30 29 28 27 26 26 25 25 26 27 28 29 30 31 31 31 30 28 27 24 22 21 19 19 18 19
34 34 35 36 36 37 38 37 37 37 37 37 37 36 34 33 33 32 31 30 29 28 27 26 26 27 28 29 30 31 32 32 32 31 30 28 26 25 23 22 22 22
33 34 34 35 36 36 35 35 35 36 37 38 38 37 37 36 35 34 33 32 31 30 29 27 27 28 28 29 30 30 31 31 31 31 31 31 30 28 27 26 26 25
34 33 33 33 33 31 30 30 31 32 35 37 37 38 38 37 36 36 35 34 34 33 31 30 30 30 30 30 30 31 30 30 29 30 30 31 31 31 30 29 29 28
34 32 31 30 29 28 27 28 28 29 31 33 34 35 37 37 37 37 36 36 35 34 33 33 33 33 33 32 32 32 31 30 30 29 29 29 30 31 31 31 31 31
35 32 31 29 28 27 28 29 28 28 29 30 31 31 33 35 35 36 35 35 35 35 34 34 34 35 35 34 34 34 33 32 32 31 30 30 31 31 32 32 33 33
37 34 32 30 30 29 30 31 30 30 29 29 30 31 32 32 33 33 33 33 34 34 33 33 34 35 36 35 35 35 34 34 34 32 32 32 33 33 34 34 34 34
Wind_Direction
188 188 188 185 185 185 185 186 187 188 187 185 182 180 181 185 185 185 185 185 180 177 177 176 175 175 172 169 170 172 175 178 185 190 189 185 185 191 193 194 197 196
194 195 193 190 188 190 193 191 188 192 195 195 195 193 192 191 191 190 190 189 184 181 182 182 180 177 174 172 170 170 172 174 182 189 191 187 183 187 193 197 200 196
197 198 197 196 195 196 200 198 194 197 198 198 203 202 197 194 194 193 191 190 186 183 185 185 181 177 173 169 164 164 165 168 177 182 183 184 181 183 188 194 201 201
198 199 199 202 202 201 202 203 201 201 200 202 204 202 197 194 195 195 192 190 188 185 186 185 181 175 169 162 157 156 156 161 171 175 173 176 178 178 179 182 190 197
198 199 200 203 206 206 205 206 206 205 206 208 206 204 201 196 194 194 192 191 188 186 186 183 178 171 164 159 153 149 147 150 158 164 166 169 172 173 171 171 179 188
198 201 202 203 206 208 208 209 209 208 210 211 206 206 207 203 196 192 192 191 187 185 183 178 173 168 163 159 154 149 146 146 148 152 157 163 166 170 172 171 177 185
199 202 205 205 205 207 210 213 212 211 213 213 210 208 208 207 202 194 193 192 187 183 179 174 170 167 164 161 156 152 150 147 146 146 149 155 159 165 172 177 181 186
201 203 206 207 205 205 211 214 213 213 215 214 212 211 209 208 205 197 194 193 188 183 178 175 173 169 167 164 160 157 154 150 148 147 148 149 152 158 166 177 186 190
205 204 206 208 206 206 210 214 214 215 216 215 215 214 211 210 207 199 195 194 191 186 181 178 176 174 172 170 167 164 160 157 153 151 151 150 152 158 165 173 182 189
207 206 206 206 206 207 210 214 216 216 215 216 217 215 211 211 209 202 197 195 194 190 187 184 181 180 179 178 175 172 169 166 162 158 158 158 159 164 173 181 185 189
209 208 206 205 206 208 211 213 215 216 216 216 218 216 213 211 209 205 200 197 197 195 193 191 188 186 185 184 183 180 177 174 172 169 168 168 171 175 183 196 203 207
208 209 207 206 206 208 212 214 214 214 215 216 218 217 215 211 208 207 204 200 200 199 198 197 194 192 191 190 189 186 184 182 181 181 180 180 184 190 199 209 219 227
207 208 208 207 207 209 212 214 214 214 213 215 217 217 217 213 208 208 208 206 204 202 202 201 199 197 196 196 194 192 191 190 188 189 190 192 194 199 207 216 226 236
206 207 208 209 209 210 212 214 214 214 213 214 216 217 217 215 210 208 210 210 208 206 206 205 203 202 201 200 199 198 198 197 196 196 196 199 202 206 212 220 227 236
205 206 207 209 210 211 212 214 214 214 214 215 216 216 215 215 213 211 211 212 212 210 209 208 207 207 207 206 205 204 204 204 204 203 203 204 208 212 218 224 228 234
205 205 206 208 210 211 213 214 214 214 214 215 216 216 216 216 215 214 213 214 214 213 212 211 210 211 212 212 212 211 211 211 212 210 209 209 212 216 223 228 231 234
204 205 206 208 210 211 213 215 215 214 214 215 216 217 218 218 218 216 215 215 216 216 215 213 212 214 216 216 217 217 217 217 218 217 215 213 215 220 226 231 234 236
206 206 207 208 210 212 213 215 216 216 215 216 217 218 219 220 220 219 218 217 217 217 216 215 214 215 218 219 220 221 222 222 223 223 221 219 219 222 228 234 238 241
208 208 209 209 210 212 214 215 216 216 216 216 217 219 220 222 222 221 221 221 220 219 217 216 215 216 218 220 222 223 224 225 226 228 227 225 225 227 230 235 240 244
210 210 210 211 212 213 214 215 215 215 216 216 217 219 221 222 222 223 223 223 223 222 220 218 216 218 219 221 223 225 226 226 227 229 231 230 230 232 234 237 240 243
209 210 211 212 214 215 216 216 216 217 217 217 218 219 220 221 222 223 224 224 225 225 225 223 221 221 222 223 225 226 228 228 228 230 232 233 233 235 237 239 241 243
209 210 211 213 215 217 219 220 220 221 220 219 219 220 220 221 223 224 224 225 226 227 227 228 228 228 227 228 229 230 231 231 231 231 233 234 235 237 238 240 242 243
211 211 212 214 216 217 220 223 228 231 230 226 223 222 221 221 222 224 225 226 227 228 228 228 230 232 232 232 233 235 236 236 235 234 235 236 238 239 240 242 244 245
213 214 216 217 218 218 217 218 225 235 238 234 230 227 224 223 222 224 226 228 229 230 230 230 231 234 235 235 236 238 239 240 239 239 238 238 240 242 243 244 246 247
215 216 218 220 221 220 218 215 216 221 228 233 234 232 229 227 225 225 226 229 231 232 233 233 234 237 238 239 240 241 242 243 243 243 242 242 243 245 246 246 247 248
216 217 219 221 222 222 221 220 217 215 219 226 232 234 233 231 230 228 227 229 232 234 236 236 237 239 241 242 243 244 245 246 246 246 246 246 246 246 247 248 248 249
Height
5942 5943 5945 5946 5947 5948 5949 5950 5951 5952 5952 5952 5952 5953 5953 5953 5954 5954 5955 5955 5956 5956 5957 5957 5958 5958 5959 5960 5961 5961 5962 5962 5962 5963 5963 5963 5964 5964 5965 5966 5966 5967
5941 5942 5944 5945 5947 5948 5948 5949 5951 5951 5952 5953 5953 5953 5953 5953 5953 5954 5954 5955 5955 5955 5956 5956 5957 5958 5958 5959 5960 5961 5961 5962 5962 5963 5963 5963 5963 5964 5964 5965 5966 5967
5940 5941 5943 5944 5946 5947 5948 5949 5950 5951 5952 5953 5953 5953 5953 5953 5953 5953 5953 5954 5954 5955 5955 5956 5956 5957 5958 5959 5959 5960 5961 5961 5962 5962 5962 5963 5963 5964 5964 5965 5966 5966
5939 5940 5942 5943 5944 5946 5947 5948 5950 5951 5952 5952 5952 5952 5953 5953 5953 5953 5953 5953 5954 5954 5955 5955 5956 5957 5957 5958 5959 5959 5960 5961 5961 5962 5962 5963 5963 5964 5964 5965 5965 5966
5937 5938 5940 5942 5943 5945 5946 5948 5949 5950 5951 5951 5952 5952 5952 5952 5953 5953 5953 5953 5954 5954 5954 5955 5955 5956 5957 5958 5959 5959 5960 5960 5961 5961 5962 5962 5963 5964 5964 5964 5965 5966
5935 5937 5938 5940 5942 5944 5945 5946 5948 5949 5950 5951 5951 5952 5952 5952 5952 5952 5952 5953 5953 5954 5954 5955 5955 5956 5957 5958 5959 5959 5960 5960 5961 5961 5961 5962 5963 5964 5964 5964 5965 5966
5934 5935 5937 5938 5941 5942 5944 5945 5946 5947 5948 5949 5950 5951 5951 5952 5952 5952 5952 5952 5953 5953 5954 5954 5955 5956 5957 5958 5959 5959 5960 5960 5961 5961 5961 5962 5962 5963 5964 5965 5965 5966
5932 5933 5935 5936 5939 5941 5942 5943 5945 5946 5947 5948 5949 5950 5950 5951 5951 5952 5952 5952 5953 5953 5954 5954 5955 5956 5956 5957 5958 5959 5959 5960 5961 5961 5962 5962 5963 5963 5964 5965 5965 5966
5930 5932 5933 5935 5937 5939 5940 5942 5943 5944 5945 5946 5947 5948 5949 5950 5950 5951 5951 5952 5953 5953 5954 5955 5955 5955 5956 5957 5958 5958 5959 5960 5960 5961 5962 5962 5963 5964 5964 5965 5965 5966
5928 5930 5932 5934 5935 5937 5938 5940 5941 5942 5944 5945 5945 5947 5948 5948 5949 5950 5950 5951 5952 5953 5954 5955 5955 5955 5956 5957 5957 5958 5959 5959 5960 5961 5961 5962 5963 5964 5965 5965 5966 5966
5926 5928 5931 5933 5934 5935 5936 5937 5939 5940 5942 5943 5944 5945 5946 5947 5948 5949 5949 5950 5951 5953 5954 5954 5955 5955 5956 5956 5957 5958 5959 5959 5960 5961 5961 5962 5962 5963 5964 5965 5966 5966
5924 5926 5928 5930 5931 5933 5933 5935 5936 5938 5940 5941 5942 5943 5945 5946 5947 5947 5948 5949 5950 5951 5953 5954 5955 5955 5956 5956 5957 5958 5958 5959 5960 5961 5961 5962 5962 5963 5964 5964 5965 5966
5921 5923 5925 5927 5928 5929 5930 5932 5933 5935 5937 5938 5940 5941 5942 5944 5945 5946 5947 5948 5949 5950 5951 5952 5954 5955 5955 5956 5957 5958 5958 5959 5960 5960 5961 5961 5962 5962 5963 5964 5964 5965
5918 5920 5921 5923 5924 5926 5927 5929 5930 5932 5934 5935 5937 5939 5940 5942 5943 5945 5945 5946 5948 5949 5950 5951 5952 5954 5955 5956 5956 5957 5958 5959 5959 5960 5960 5961 5961 5962 5962 5963 5963 5964
5914 5916 5917 5919 5921 5922 5924 5926 5928 5929 5930 5932 5934 5936 5938 5939 5941 5942 5944 5945 5946 5947 5948 5950 5951 5953 5954 5955 5955 5956 5957 5958 5958 5959 5960 5960 5961 5961 5962 5962 5962 5963
5909 5911 5913 5915 5917 5919 5921 5923 5924 5926 5927 5929 5931 5933 5934 5936 5938 5940 5942 5943 5944 5946 5947 5948 5950 5951 5952 5953 5954 5955 5956 5957 5957 5958 5958 5959 5960 5960 5960 5961 5961 5961
5905 5907 5909 5911 5913 5915 5917 5919 5921 5922 5924 5926 5928 5930 5931 5933 5935 5937 5939 5940 5942 5943 5945 5946 5948 5949 5950 5951 5952 5953 5954 5955 5956 5957 5957 5958 5958 5959 5959 5959 5959 5960
5902 5904 5906 5908 5910 5912 5914 5916 5917 5919 5921 5923 5925 5926 5928 5930 5932 5934 5936 5937 5939 5941 5942 5944 5946 5947 5948 5949 5950 5951 5952 5953 5954 5955 5956 5956 5957 5957 5957 5957 5958 5958
5899 5901 5903 5905 5906 5908 5910 5911 5914 5916 5918 5920 5921 5923 5925 5927 5929 5931 5932 5934 5936 5938 5940 5941 5943 5944 5945 5946 5947 5948 5949 5951 5952 5953 5954 5954 5955 5955 5955 5956 5956 5956
5897 5899 5901 5902 5903 5905 5906 5908 5910 5912 5914 5916 5917 5919 5921 5924 5926 5927 5929 5931 5933 5935 5936 5938 5940 5941 5942 5943 5944 5945 5946 5948 5949 5950 5951 5952 5953 5953 5953 5954 5954 5954
5895 5897 5898 5900 5901 5903 5904 5906 5907 5909 5910 5912 5914 5915 5918 5920 5922 5924 5926 5927 5929 5931 5933 5935 5937 5938 5939 5940 5941 5942 5943 5944 5946 5947 5949 5950 5950 5951 5951 5951 5952 5952
5891 5893 5895 5897 5899 5901 5904 5906 5907 5908 5909 5909 5910 5911 5913 5916 5918 5920 5922 5924 5926 5928 5930 5932 5934 5935 5936 5937 5938 5938 5939 5941 5943 5944 5946 5947 5948 5948 5949 5949 5949 5949
5889 5891 5893 5895 5897 5900 5904 5907 5909 5910 5910 5909 5908 5908 5909 5911 5913 5916 5918 5920 5922 5924 5927 5929 5930 5931 5932 5934 5934 5935 5936 5938 5940 5941 5943 5944 5945 5945 5946 5946 5946 5947
5887 5889 5891 5894 5896 5899 5901 5903 5905 5908 5911 5912 5912 5910 5909 5908 5909 5911 5913 5916 5918 5921 5923 5925 5926 5927 5928 5930 5931 5931 5933 5934 5936 5938 5939 5941 5942 5942 5942 5943 5943 5943
5885 5887 5889 5892 5894 5896 5897 5898 5900 5902 5907 5911 5914 5915 5912 5910 5908 5908 5910 5912 5915 5917 5920 5922 5923 5923 5924 5926 5927 5928 5929 5931 5932 5934 5936 5937 5938 5938 5939 5939 5940 5940
5882 5885 5887 5888 5890 5892 5894 5895 5896 5898 5901 5906 5910 5913 5913 5912 5909 5908 5908 5909 5912 5914 5916 5918 5920 5920 5921 5923 5924 5924 5925 5926 5928 5930 5932 5933 5933 5934 5935 5935 5936 5936